Flag for Slovenia Weather past 2 weeks in Maribor, Slovenia

Now
79 °F

Partly sunny.


Feels Like: 80 °F
Forecast: 58 / 82 °F
Wind: 3 mph from Southeast

Location: Maribor / Slivnica

Current Time: Jun 30, 2015 at 4:33:40 PM

Latest Report: Jun 30, 2015 at 3:00 PM


Visibility: 19 mi

Pressure: 30.11 "Hg

Humidity: 45%

Dew point: 56 °F

Location of MariborLocation

Historic Weather in Maribor — Graph

°F

Maribor temperature yesterday

Maximum temperature yesterday: 74 °F (at 6:00 PM)
Minimum temperature yesterday: 53 °F (at 4:00 AM)
Average temperature yesterday: 66 °F

Past Weeks' High & Low Weather Summary

 TemperatureHumidityPressure
High78 °F (Jun 30, 2:00 PM)98% (Jun 28, 3:00 AM)30.27 "Hg (Jun 28, 3:00 AM)
Low46 °F (Jun 25, 5:00 AM)40% (Jun 26, 6:00 PM)29.77 "Hg (Jun 23, 6:00 AM)
Average62 °F73%30.05 "Hg
* Reported Jun 15 2:00 PM — Jun 30 2:00 PM, Maribor, Weather by CustomWeather, © 2015

Note: Actual official high and low records may vary slightly from our data, if they occured in-between our weather recording intervals... More about our weather records

Advertising

Maribor weather history for previous 24 hours

 ConditionsComfort  
Time TempWeatherWind HumidityBarometerVisibility
2:00 PM
Tue, Jun 30
78 °FPartly sunny.2 mph44%30.13 "Hg12 mi
1:00 PM76 °FOvercast.2 mph48%30.15 "Hg12 mi
12:00 PM75 °FPartly sunny.2 mph59%30.16 "Hg12 mi
11:00 AM73 °FOvercast.2 mph58%30.17 "Hg12 mi
9:00 AM63 °FPartly sunny.1 mph87%30.19 "Hg12 mi
8:00 AM60 °FOvercast.1 mph92%30.19 "Hg12 mi
7:00 AM58 °FFog.No wind96%30.19 "Hg9 mi
6:00 AM58 °FFog.1 mph98%30.18 "Hg0 mi
4:00 AM57 °FDuststorm.1 mph97%30.17 "Hg0 mi
3:00 AM57 °FDuststorm.1 mph96%30.19 "Hg2 mi
2:00 AM62 °FCool.1 mph91%30.18 "Hg12 mi
1:00 AM62 °FCool.1 mph92%30.18 "Hg9 mi
12:00 AM63 °FLight rain. Overcast.2 mph90%30.20 "Hg9 mi
10:00 PM
Mon, Jun 29
64 °FPassing clouds.1 mph83%30.16 "Hg19 mi
9:00 PM69 °FMild.1 mph71%30.13 "Hg25 mi
8:00 PM73 °FPassing clouds.2 mph56%30.11 "Hg19 mi
7:00 PM74 °FPassing clouds.3 mph51%30.10 "Hg19 mi
6:00 PM74 °FScattered clouds.3 mph47%30.11 "Hg19 mi
5:00 PM74 °FPartly sunny.1 mph49%30.12 "Hg19 mi
4:00 PM73 °FOvercast.2 mph51%30.14 "Hg22 mi
Weather by CustomWeather, © 2015

See weather overviewHow to use our weather pages